Time,TemperatureF,DewpointF,PressureIn,WindDirection,WindDirectionDegrees,WindSpeedMPH,WindSpeedGustMPH,Humidity,HourlyPrecipIn,Conditions,Clouds,dailyrainin,SolarRadiationWatts/m^2,SoftwareType,DateUTC
2013-01-03 00:00:00,8.8,-5.6,30.04,NNW,340,7.0,19.0,51,0.00,,OVC021,0.00,0.00,VWS V14.01,2013-01-03 05:00:00,
2013-01-03 00:05:00,8.6,-5.8,30.04,NW,309,11.0,17.0,51,0.00,,OVC021,0.00,0.00,VWS V14.01,2013-01-03 05:05:00,
2013-01-03 00:10:00,8.5,-5.9,30.05,North,360,6.0,17.0,51,0.00,,OVC021,0.00,0.00,VWS V14.01,2013-01-03 05:10:00,
2013-01-03 00:15:00,8.3,-6.1,30.05,NW,326,4.0,15.0,51,0.00,,OVC021,0.00,0.00,VWS V14.01,2013-01-03 05:15:00,
2013-01-03 00:20:00,8.1,-6.3,30.05,NW,325,9.0,13.0,51,0.00,,OVC021,0.00,0.00,VWS V14.01,2013-01-03 05:20:00,
2013-01-03 00:25:00,8.0,-6.4,30.05,NW,319,13.0,13.0,51,0.00,,OVC021,0.00,0.00,VWS V14.01,2013-01-03 05:25:00,
2013-01-03 00:30:00,7.9,-6.5,30.05,WNW,285,7.0,16.0,51,0.00,,OVC021,0.00,0.00,VWS V14.01,2013-01-03 05:30:00,
2013-01-03 00:35:00,7.8,-6.6,30.05,WNW,286,7.0,14.0,51,0.00,,OVC021,0.00,0.00,VWS V14.01,2013-01-03 05:35:00,
2013-01-03 00:40:00,7.7,-6.7,30.06,NNW,331,7.0,14.0,51,0.00,,OVC021,0.00,0.00,VWS V14.01,2013-01-03 05:40:00,
2013-01-03 00:45:00,7.6,-6.7,30.06,WNW,302,8.0,12.0,51,0.00,,OVC021,0.00,0.00,VWS V14.01,2013-01-03 05:45:00,
2013-01-03 00:50:00,7.5,-6.4,30.06,NW,308,9.0,11.0,52,0.00,,OVC021,0.00,0.00,VWS V14.01,2013-01-03 05:50:00,
2013-01-03 00:55:00,7.4,-6.5,30.06,NW,323,9.0,11.0,52,0.00,,OVC021,0.00,0.00,VWS V14.01,2013-01-03 05:55:00,
2013-01-03 01:00:00,7.3,-6.6,30.06,North,11,7.0,12.0,52,0.00,,OVC021,0.00,0.00,VWS V14.01,2013-01-03 06:00:00,
2013-01-03 01:05:00,7.3,-6.6,30.06,NW,319,9.0,12.0,52,0.00,,OVC021,0.00,0.00,VWS V14.01,2013-01-03 06:05:00,
2013-01-03 01:10:00,7.2,-6.3,30.06,WNW,286,5.0,11.0,53,0.00,,OVC021,0.00,0.00,VWS V14.01,2013-01-03 06:10:00,
2013-01-03 01:15:00,7.1,-6.4,30.06,NW,317,2.0,11.0,53,0.00,,OVC021,0.00,0.00,VWS V14.01,2013-01-03 06:15:00,
2013-01-03 01:20:00,6.9,-6.6,30.07,NNW,328,9.0,10.0,53,0.00,,OVC021,0.00,0.00,VWS V14.01,2013-01-03 06:20:00,
2013-01-03 01:25:00,7.0,-6.5,30.06,NW,315,7.0,13.0,53,0.00,,OVC021,0.00,0.00,VWS V14.01,2013-01-03 06:25:00,
2013-01-03 01:30:00,6.9,-6.6,30.07,NW,321,7.0,10.0,53,0.00,,OVC021,0.00,0.00,VWS V14.01,2013-01-03 06:30:00,
2013-01-03 01:35:00,6.9,-6.6,30.07,NNW,343,8.0,11.0,53,0.00,,OVC021,0.00,0.00,VWS V14.01,2013-01-03 06:35:00,
2013-01-03 01:40:00,6.9,-6.6,30.07,NW,309,5.0,11.0,53,0.00,,OVC021,0.00,0.00,VWS V14.01,2013-01-03 06:40:00,
2013-01-03 01:45:00,6.9,-6.6,30.07,NW,315,4.0,9.0,53,0.00,,OVC021,0.00,0.00,VWS V14.01,2013-01-03 06:45:00,
2013-01-03 01:50:00,6.8,-6.7,30.08,NNW,330,6.0,8.0,53,0.00,,OVC021,0.00,0.00,VWS V14.01,2013-01-03 06:50:00,
2013-01-03 01:55:00,6.8,-6.7,30.08,NNW,335,2.0,9.0,53,0.00,,OVC021,0.00,0.00,VWS V14.01,2013-01-03 06:55:00,
2013-01-03 02:00:00,6.7,-6.4,30.07,NW,318,3.0,9.0,54,0.00,,OVC021,0.00,0.00,VWS V14.01,2013-01-03 07:00:00,
2013-01-03 02:05:00,6.6,-6.5,30.07,NW,326,3.0,10.0,54,0.00,,OVC021,0.00,0.00,VWS V14.01,2013-01-03 07:05:00,
2013-01-03 02:10:00,6.5,-6.2,30.07,NW,304,2.0,5.0,55,0.00,,OVC021,0.00,0.00,VWS V14.01,2013-01-03 07:10:00,
2013-01-03 02:15:00,6.4,-6.3,30.07,West,280,2.0,7.0,55,0.00,,OVC021,0.00,0.00,VWS V14.01,2013-01-03 07:15:00,
2013-01-03 02:20:00,6.2,-6.1,30.07,West,279,3.0,5.0,56,0.00,,OVC021,0.00,0.00,VWS V14.01,2013-01-03 07:20:00,
2013-01-03 02:25:00,6.0,-6.3,30.07,NW,310,3.0,4.0,56,0.00,,OVC021,0.00,0.00,VWS V14.01,2013-01-03 07:25:00,
2013-01-03 02:30:00,5.9,-6.0,30.08,NW,318,0.0,5.0,57,0.00,,OVC021,0.00,0.00,VWS V14.01,2013-01-03 07:30:00,
2013-01-03 02:35:00,5.9,-5.7,30.07,NW,315,3.0,6.0,58,0.00,,OVC021,0.00,0.00,VWS V14.01,2013-01-03 07:35:00,
2013-01-03 02:40:00,5.9,-5.7,30.07,WNW,290,2.0,5.0,58,0.00,,OVC021,0.00,0.00,VWS V14.01,2013-01-03 07:40:00,
2013-01-03 02:45:00,5.7,-5.5,30.07,WNW,302,3.0,5.0,59,0.00,,OVC021,0.00,0.00,VWS V14.01,2013-01-03 07:45:00,
2013-01-03 02:50:00,5.6,-5.6,30.07,NW,316,1.0,5.0,59,0.00,,OVC021,0.00,0.00,VWS V14.01,2013-01-03 07:50:00,
2013-01-03 02:55:00,5.5,-5.7,30.07,WNW,294,2.0,6.0,59,0.00,,OVC021,0.00,0.00,VWS V14.01,2013-01-03 07:55:00,
2013-01-03 03:00:00,5.5,-5.7,30.07,WNW,298,1.0,5.0,59,0.00,,OVC021,0.00,0.00,VWS V14.01,2013-01-03 08:00:00,
2013-01-03 03:05:00,5.4,-5.8,30.07,NW,304,2.0,7.0,59,0.00,,OVC021,0.00,0.00,VWS V14.01,2013-01-03 08:05:00,
2013-01-03 03:10:00,5.4,-6.2,30.07,NW,309,2.0,6.0,58,0.00,,OVC021,0.00,0.00,VWS V14.01,2013-01-03 08:10:00,
2013-01-03 03:15:00,5.4,-6.2,30.07,NW,310,2.0,4.0,58,0.00,,OVC021,0.00,0.00,VWS V14.01,2013-01-03 08:15:00,
2013-01-03 03:20:00,5.4,-6.2,30.07,WNW,291,5.0,5.0,58,0.00,,OVC021,0.00,0.00,VWS V14.01,2013-01-03 08:20:00,
2013-01-03 03:25:00,5.3,-6.6,30.07,WNW,296,4.0,8.0,57,0.00,,OVC021,0.00,0.00,VWS V14.01,2013-01-03 08:25:00,
2013-01-03 03:30:00,5.3,-6.2,30.07,WNW,299,1.0,8.0,58,0.00,,OVC021,0.00,0.00,VWS V14.01,2013-01-03 08:30:00,
2013-01-03 03:35:00,5.1,-6.4,30.06,WNW,299,2.0,4.0,58,0.00,,OVC021,0.00,0.00,VWS V14.01,2013-01-03 08:35:00,
2013-01-03 03:40:00,5.1,-6.4,30.06,WNW,302,2.0,6.0,58,0.00,,OVC021,0.00,0.00,VWS V14.01,2013-01-03 08:40:00,
2013-01-03 03:45:00,5.0,-6.5,30.06,WNW,300,6.0,6.0,58,0.00,,OVC021,0.00,0.00,VWS V14.01,2013-01-03 08:45:00,
2013-01-03 03:50:00,4.9,-6.3,30.06,NW,317,3.0,7.0,59,0.00,,OVC021,0.00,0.00,VWS V14.01,2013-01-03 08:50:00,
2013-01-03 03:55:00,4.9,-6.3,30.06,WNW,284,3.0,7.0,59,0.00,,OVC021,0.00,0.00,VWS V14.01,2013-01-03 08:55:00,
2013-01-03 04:00:00,4.9,-6.3,30.06,WNW,302,2.0,7.0,59,0.00,,OVC021,0.00,0.00,VWS V14.01,2013-01-03 09:00:00,
2013-01-03 04:05:00,4.8,-6.4,30.06,WNW,301,3.0,7.0,59,0.00,,OVC021,0.00,0.00,VWS V14.01,2013-01-03 09:05:00,
2013-01-03 04:10:00,4.6,-6.2,30.06,NW,313,3.0,5.0,60,0.00,,OVC021,0.00,0.00,VWS V14.01,2013-01-03 09:10:00,
2013-01-03 04:15:00,4.5,-6.3,30.05,WNW,298,3.0,5.0,60,0.00,,OVC021,0.00,0.00,VWS V14.01,2013-01-03 09:15:00,
2013-01-03 04:20:00,4.5,-6.3,30.05,WNW,302,1.0,4.0,60,0.00,,OVC021,0.00,0.00,VWS V14.01,2013-01-03 09:20:00,
2013-01-03 04:25:00,4.3,-6.2,30.06,West,278,5.0,5.0,61,0.00,,OVC021,0.00,0.00,VWS V14.01,2013-01-03 09:25:00,
2013-01-03 04:30:00,4.2,-6.2,30.06,WNW,293,2.0,6.0,61,0.00,,OVC021,0.00,0.00,VWS V14.01,2013-01-03 09:30:00,
2013-01-03 04:35:00,4.1,-6.0,30.05,WNW,292,2.0,4.0,62,0.00,,OVC021,0.00,0.00,VWS V14.01,2013-01-03 09:35:00,
2013-01-03 04:40:00,4.0,-6.1,30.06,WNW,296,1.0,4.0,62,0.00,,OVC021,0.00,0.00,VWS V14.01,2013-01-03 09:40:00,
2013-01-03 04:45:00,3.9,-6.2,30.06,WNW,296,2.0,4.0,62,0.00,,OVC021,0.00,0.00,VWS V14.01,2013-01-03 09:45:00,
2013-01-03 04:50:00,3.9,-6.2,30.06,WNW,296,2.0,3.0,62,0.00,,OVC021,0.00,0.00,VWS V14.01,2013-01-03 09:50:00,
2013-01-03 04:55:00,3.8,-6.3,30.05,NW,313,3.0,4.0,62,0.00,,OVC021,0.00,0.00,VWS V14.01,2013-01-03 09:55:00,
2013-01-03 05:00:00,3.7,-6.4,30.05,NW,313,2.0,4.0,62,0.00,,OVC021,0.00,0.00,VWS V14.01,2013-01-03 10:00:00,
2013-01-03 05:05:00,3.7,-6.1,30.05,NW,313,2.0,4.0,63,0.00,,OVC021,0.00,0.00,VWS V14.01,2013-01-03 10:05:00,
2013-01-03 05:10:00,3.6,-6.2,30.05,NW,313,2.0,4.0,63,0.00,,OVC021,0.00,0.00,VWS V14.01,2013-01-03 10:10:00,
2013-01-03 05:15:00,3.5,-6.3,30.05,NW,313,1.0,3.0,63,0.00,,OVC021,0.00,0.00,VWS V14.01,2013-01-03 10:15:00,
2013-01-03 05:20:00,3.4,-6.3,30.05,NW,313,0.0,4.0,63,0.00,,OVC021,0.00,0.00,VWS V14.01,2013-01-03 10:20:00,
2013-01-03 05:25:00,3.3,-6.1,30.05,NW,313,2.0,3.0,64,0.00,,OVC021,0.00,0.00,VWS V14.01,2013-01-03 10:25:00,
2013-01-03 05:30:00,3.2,-6.2,30.06,NW,313,3.0,3.0,64,0.00,,OVC021,0.00,0.00,VWS V14.01,2013-01-03 10:30:00,
2013-01-03 05:35:00,3.1,-6.3,30.06,WNW,284,2.0,5.0,64,0.00,,OVC021,0.00,0.00,VWS V14.01,2013-01-03 10:35:00,
2013-01-03 05:40:00,3.1,-6.3,30.06,WNW,293,2.0,6.0,64,0.00,,OVC021,0.00,0.00,VWS V14.01,2013-01-03 10:40:00,
2013-01-03 05:45:00,3.1,-6.6,30.06,WNW,300,2.0,5.0,63,0.00,,OVC021,0.00,0.00,VWS V14.01,2013-01-03 10:45:00,
2013-01-03 05:50:00,3.1,-6.6,30.06,WNW,300,2.0,5.0,63,0.00,,OVC021,0.00,0.00,VWS V14.01,2013-01-03 10:50:00,
2013-01-03 05:55:00,3.1,-6.6,30.06,WNW,300,3.0,5.0,63,0.00,,OVC021,0.00,0.00,VWS V14.01,2013-01-03 10:55:00,
2013-01-03 06:00:00,3.0,-6.7,30.06,WNW,300,0.0,4.0,63,0.00,,OVC021,0.00,0.00,VWS V14.01,2013-01-03 11:00:00,
2013-01-03 06:04:00,3.0,-6.4,30.06,NW,315,3.0,3.0,64,0.00,,OVC021,0.00,0.00,VWS V14.01,2013-01-03 11:04:00,
2013-01-03 06:05:00,3.0,-6.4,30.06,NW,317,3.0,4.0,64,0.00,,OVC021,0.00,0.00,VWS V14.01,2013-01-03 11:05:00,
2013-01-03 06:10:00,2.9,-6.5,30.06,NW,317,2.0,4.0,64,0.00,,OVC021,0.00,0.00,VWS V14.01,2013-01-03 11:10:00,
2013-01-03 06:11:00,2.9,-6.5,30.05,NW,317,2.0,4.0,64,0.00,,OVC021,0.00,0.00,VWS V14.01,2013-01-03 11:11:00,
2013-01-03 06:15:00,2.8,-6.6,30.05,NW,317,3.0,4.0,64,0.00,,OVC021,0.00,0.00,VWS V14.01,2013-01-03 11:15:00,
2013-01-03 06:16:00,2.8,-6.6,30.05,NW,318,4.0,6.0,64,0.00,,OVC021,0.00,0.00,VWS V14.01,2013-01-03 11:16:00,
2013-01-03 06:20:00,2.8,-6.6,30.05,WNW,300,3.0,6.0,64,0.00,,OVC021,0.00,0.00,VWS V14.01,2013-01-03 11:20:00,
2013-01-03 06:21:00,2.8,-6.6,30.05,WNW,300,3.0,5.0,64,0.00,,OVC021,0.00,0.00,VWS V14.01,2013-01-03 11:21:00,
2013-01-03 06:25:00,2.8,-6.6,30.05,WNW,300,2.0,5.0,64,0.00,,OVC021,0.00,0.00,VWS V14.01,2013-01-03 11:25:00,
2013-01-03 06:26:00,2.8,-6.6,30.05,NW,313,4.0,5.0,64,0.00,,OVC021,0.00,0.00,VWS V14.01,2013-01-03 11:26:00,
2013-01-03 06:30:00,2.8,-6.6,30.05,NW,309,3.0,5.0,64,0.00,,OVC021,0.00,0.00,VWS V14.01,2013-01-03 11:30:00,
2013-01-03 06:32:00,2.8,-6.6,30.05,NW,319,2.0,5.0,64,0.00,,OVC021,0.00,0.00,VWS V14.01,2013-01-03 11:32:00,
2013-01-03 06:35:00,2.8,-6.6,30.05,WNW,300,5.0,5.0,64,0.00,,OVC021,0.00,0.00,VWS V14.01,2013-01-03 11:35:00,
2013-01-03 06:37:00,2.8,-6.6,30.05,WNW,296,4.0,5.0,64,0.00,,OVC021,0.00,0.00,VWS V14.01,2013-01-03 11:37:00,
2013-01-03 06:40:00,2.8,-6.6,30.05,WNW,296,4.0,5.0,64,0.00,,OVC021,0.00,0.00,VWS V14.01,2013-01-03 11:40:00,
2013-01-03 06:42:00,2.7,-6.7,30.05,WNW,294,4.0,5.0,64,0.00,,OVC021,0.00,0.00,VWS V14.01,2013-01-03 11:42:00,
2013-01-03 06:45:00,2.7,-6.7,30.05,WNW,294,4.0,5.0,64,0.00,,OVC021,0.00,0.00,VWS V14.01,2013-01-03 11:45:00,
2013-01-03 06:47:00,2.6,-6.5,30.06,WNW,294,5.0,5.0,65,0.00,,OVC021,0.00,0.00,VWS V14.01,2013-01-03 11:47:00,
2013-01-03 06:50:00,2.6,-6.5,30.06,WNW,291,4.0,6.0,65,0.00,,OVC021,0.00,0.00,VWS V14.01,2013-01-03 11:50:00,
2013-01-03 06:52:00,2.5,-6.6,30.06,West,281,3.0,5.0,65,0.00,,OVC021,0.00,0.00,VWS V14.01,2013-01-03 11:52:00,
2013-01-03 06:55:00,2.5,-6.6,30.06,West,281,4.0,5.0,65,0.00,,OVC021,0.00,0.00,VWS V14.01,2013-01-03 11:55:00,
2013-01-03 06:57:00,2.4,-6.7,30.06,WNW,295,3.0,5.0,65,0.00,,OVC021,0.00,0.00,VWS V14.01,2013-01-03 11:57:00,
2013-01-03 07:00:00,2.4,-6.7,30.06,WNW,295,3.0,5.0,65,0.00,,OVC021,0.00,0.00,VWS V14.01,2013-01-03 12:00:00,
2013-01-03 07:02:00,2.4,-6.3,30.06,WNW,294,4.0,5.0,66,0.00,,OVC021,0.00,0.00,VWS V14.01,2013-01-03 12:02:00,
2013-01-03 07:05:00,2.4,-6.3,30.06,WNW,289,3.0,5.0,66,0.00,,OVC021,0.00,0.00,VWS V14.01,2013-01-03 12:05:00,
2013-01-03 07:07:00,2.3,-6.4,30.06,WNW,290,1.0,6.0,66,0.00,,OVC021,0.00,0.00,VWS V14.01,2013-01-03 12:07:00,
2013-01-03 07:10:00,2.3,-6.4,30.06,WNW,290,1.0,6.0,66,0.00,,OVC021,0.00,0.00,VWS V14.01,2013-01-03 12:10:00,
2013-01-03 07:12:00,2.2,-6.5,30.06,WNW,289,1.0,3.0,66,0.00,,OVC021,0.00,0.00,VWS V14.01,2013-01-03 12:12:00,
2013-01-03 07:15:00,2.2,-6.5,30.06,WNW,290,0.0,3.0,66,0.00,,OVC021,0.00,0.00,VWS V14.01,2013-01-03 12:15:00,
2013-01-03 07:17:00,2.2,-6.2,30.06,WNW,290,2.0,4.0,67,0.00,,OVC021,0.00,0.00,VWS V14.01,2013-01-03 12:17:00,
2013-01-03 07:20:00,2.1,-6.3,30.06,WNW,289,3.0,4.0,67,0.00,,OVC021,0.00,0.00,VWS V14.01,2013-01-03 12:20:00,
2013-01-03 07:22:00,2.1,-6.3,30.06,WNW,289,4.0,5.0,67,0.00,,OVC021,0.00,5.00,VWS V14.01,2013-01-03 12:22:00,
2013-01-03 07:25:00,2.2,-6.2,30.06,WNW,289,3.0,5.0,67,0.00,,OVC021,0.00,5.00,VWS V14.01,2013-01-03 12:25:00,
2013-01-03 07:27:00,2.2,-6.2,30.07,WNW,290,2.0,4.0,67,0.00,,OVC021,0.00,7.00,VWS V14.01,2013-01-03 12:27:00,
2013-01-03 07:30:00,2.1,-6.3,30.07,WNW,290,3.0,4.0,67,0.00,,OVC021,0.00,9.00,VWS V14.01,2013-01-03 12:30:00,
2013-01-03 07:33:00,2.2,-6.2,30.07,WNW,292,4.0,5.0,67,0.00,,OVC021,0.00,11.00,VWS V14.01,2013-01-03 12:33:00,
2013-01-03 07:35:00,2.2,-6.2,30.07,WNW,292,3.0,5.0,67,0.00,,OVC021,0.00,11.00,VWS V14.01,2013-01-03 12:35:00,
2013-01-03 07:38:00,2.2,-6.2,30.07,WNW,291,3.0,4.0,67,0.00,,OVC021,0.00,16.00,VWS V14.01,2013-01-03 12:38:00,
2013-01-03 07:40:00,2.2,-6.2,30.07,WNW,291,3.0,4.0,67,0.00,,OVC021,0.00,21.00,VWS V14.01,2013-01-03 12:40:00,
2013-01-03 07:43:00,2.4,-6.0,30.06,WNW,292,4.0,5.0,67,0.00,,OVC021,0.00,35.00,VWS V14.01,2013-01-03 12:43:00,
2013-01-03 07:45:00,2.4,-6.0,30.06,WNW,292,1.0,5.0,67,0.00,,OVC021,0.00,39.00,VWS V14.01,2013-01-03 12:45:00,
2013-01-03 07:48:00,2.7,-5.8,30.07,WNW,290,4.0,5.0,67,0.00,,OVC021,0.00,46.00,VWS V14.01,2013-01-03 12:48:00,
2013-01-03 07:50:00,2.7,-5.8,30.07,WNW,288,4.0,5.0,67,0.00,,OVC021,0.00,46.00,VWS V14.01,2013-01-03 12:50:00,
2013-01-03 07:53:00,2.8,-6.0,30.07,NW,308,3.0,6.0,66,0.00,,OVC021,0.00,58.00,VWS V14.01,2013-01-03 12:53:00,
2013-01-03 07:55:00,2.8,-6.0,30.07,NW,308,3.0,6.0,66,0.00,,OVC021,0.00,58.00,VWS V14.01,2013-01-03 12:55:00,
2013-01-03 07:58:00,3.1,-5.7,30.07,WNW,283,5.0,6.0,66,0.00,,OVC021,0.00,70.00,VWS V14.01,2013-01-03 12:58:00,
2013-01-03 08:00:00,3.2,-5.6,30.07,WNW,284,3.0,6.0,66,0.00,,OVC021,0.00,70.00,VWS V14.01,2013-01-03 13:00:00,
2013-01-03 08:03:00,3.5,-5.6,30.07,WNW,289,4.0,6.0,65,0.00,,OVC021,0.00,84.00,VWS V14.01,2013-01-03 13:03:00,
2013-01-03 08:05:00,3.5,-5.6,30.07,WNW,290,4.0,6.0,65,0.00,,OVC021,0.00,84.00,VWS V14.01,2013-01-03 13:05:00,
2013-01-03 08:08:00,3.8,-5.6,30.07,West,270,6.0,8.0,64,0.00,,OVC021,0.00,97.00,VWS V14.01,2013-01-03 13:08:00,
2013-01-03 08:10:00,3.8,-5.6,30.07,West,263,5.0,8.0,64,0.00,,OVC021,0.00,97.00,VWS V14.01,2013-01-03 13:10:00,
2013-01-03 08:13:00,4.0,-5.4,30.07,WNW,300,2.0,7.0,64,0.00,,OVC021,0.00,113.00,VWS V14.01,2013-01-03 13:13:00,
2013-01-03 08:15:00,4.0,-5.4,30.07,WNW,300,2.0,7.0,64,0.00,,OVC021,0.00,113.00,VWS V14.01,2013-01-03 13:15:00,
2013-01-03 08:18:00,4.2,-5.6,30.07,West,265,4.0,7.0,63,0.00,,OVC021,0.00,127.00,VWS V14.01,2013-01-03 13:18:00,
2013-01-03 08:20:00,4.2,-5.6,30.07,SW,232,5.0,7.0,63,0.00,,OVC021,0.00,127.00,VWS V14.01,2013-01-03 13:20:00,
2013-01-03 08:23:00,4.5,-5.3,30.07,West,265,6.0,6.0,63,0.00,,OVC021,0.00,139.00,VWS V14.01,2013-01-03 13:23:00,
2013-01-03 08:25:00,4.5,-5.3,30.07,West,265,6.0,6.0,63,0.00,,OVC021,0.00,139.00,VWS V14.01,2013-01-03 13:25:00,
2013-01-03 08:28:00,4.8,-5.0,30.06,WNW,292,5.0,6.0,63,0.00,,OVC021,0.00,155.00,VWS V14.01,2013-01-03 13:28:00,
2013-01-03 08:30:00,4.8,-5.0,30.06,WNW,292,5.0,6.0,63,0.00,,OVC021,0.00,155.00,VWS V14.01,2013-01-03 13:30:00,
2013-01-03 08:33:00,5.1,-5.1,30.07,WNW,291,4.0,4.0,62,0.00,,OVC021,0.00,171.00,VWS V14.01,2013-01-03 13:33:00,
2013-01-03 08:35:00,5.1,-5.1,30.07,WNW,293,4.0,7.0,62,0.00,,OVC021,0.00,171.00,VWS V14.01,2013-01-03 13:35:00,
2013-01-03 08:38:00,5.4,-5.1,30.06,West,269,5.0,5.0,61,0.00,,OVC021,0.00,185.00,VWS V14.01,2013-01-03 13:38:00,
2013-01-03 08:40:00,5.4,-5.1,30.06,West,269,1.0,8.0,61,0.00,,OVC021,0.00,185.00,VWS V14.01,2013-01-03 13:40:00,
2013-01-03 08:44:00,5.7,-4.8,30.07,West,278,3.0,4.0,61,0.00,,OVC021,0.00,200.00,VWS V14.01,2013-01-03 13:44:00,
2013-01-03 08:45:00,5.7,-4.8,30.07,West,269,4.0,6.0,61,0.00,,OVC021,0.00,200.00,VWS V14.01,2013-01-03 13:45:00,
2013-01-03 08:49:00,6.1,-4.8,30.06,WSW,243,5.0,8.0,60,0.00,,OVC021,0.00,214.00,VWS V14.01,2013-01-03 13:49:00,
2013-01-03 08:50:00,6.0,-4.9,30.06,WSW,240,7.0,7.0,60,0.00,,OVC021,0.00,214.00,VWS V14.01,2013-01-03 13:50:00,
2013-01-03 08:54:00,6.3,-4.9,30.06,West,281,2.0,3.0,59,0.00,,OVC021,0.00,229.00,VWS V14.01,2013-01-03 13:54:00,
2013-01-03 08:55:00,6.3,-4.9,30.06,West,278,2.0,8.0,59,0.00,,OVC021,0.00,229.00,VWS V14.01,2013-01-03 13:55:00,
2013-01-03 08:59:00,6.6,-4.7,30.06,NW,304,4.0,5.0,59,0.00,,OVC021,0.00,241.00,VWS V14.01,2013-01-03 13:59:00,
2013-01-03 09:00:00,6.6,-4.7,30.06,WNW,302,4.0,6.0,59,0.00,,OVC021,0.00,239.00,VWS V14.01,2013-01-03 14:00:00,
2013-01-03 09:04:00,6.9,-4.7,30.06,NW,310,3.0,4.0,58,0.00,,OVC021,0.00,251.00,VWS V14.01,2013-01-03 14:04:00,
2013-01-03 09:05:00,6.9,-4.7,30.06,NW,304,3.0,6.0,58,0.00,,OVC021,0.00,250.00,VWS V14.01,2013-01-03 14:05:00,
2013-01-03 09:09:00,7.3,-4.7,30.06,West,259,5.0,5.0,57,0.00,,OVC021,0.00,264.00,VWS V14.01,2013-01-03 14:09:00,
2013-01-03 09:10:00,7.3,-4.7,30.06,West,268,4.0,8.0,57,0.00,,OVC021,0.00,262.00,VWS V14.01,2013-01-03 14:10:00,
2013-01-03 09:14:00,7.6,-4.4,30.06,WNW,302,2.0,6.0,57,0.00,,OVC021,0.00,274.00,VWS V14.01,2013-01-03 14:14:00,
2013-01-03 09:15:00,7.6,-4.4,30.06,WNW,286,5.0,7.0,57,0.00,,OVC021,0.00,272.00,VWS V14.01,2013-01-03 14:15:00,
2013-01-03 09:19:00,8.1,-4.3,30.06,WSW,256,6.0,6.0,56,0.00,,OVC021,0.00,285.00,VWS V14.01,2013-01-03 14:19:00,
2013-01-03 09:20:00,8.0,-4.4,30.06,West,280,1.0,6.0,56,0.00,,OVC021,0.00,283.00,VWS V14.01,2013-01-03 14:20:00,
2013-01-03 09:24:00,8.4,-4.4,30.06,WSW,248,7.0,7.0,55,0.00,,OVC021,0.00,294.00,VWS V14.01,2013-01-03 14:24:00,
2013-01-03 09:25:00,8.3,-4.5,30.06,West,281,4.0,8.0,55,0.00,,OVC021,0.00,292.00,VWS V14.01,2013-01-03 14:25:00,
2013-01-03 09:29:00,8.8,-4.4,30.06,WNW,284,5.0,5.0,54,0.00,,OVC021,0.00,302.00,VWS V14.01,2013-01-03 14:29:00,
2013-01-03 09:30:00,8.7,-4.5,30.06,NW,326,5.0,8.0,54,0.00,,OVC021,0.00,302.00,VWS V14.01,2013-01-03 14:30:00,
2013-01-03 09:34:00,9.2,-4.4,30.06,NW,311,3.0,4.0,53,0.00,,OVC021,0.00,311.00,VWS V14.01,2013-01-03 14:34:00,
2013-01-03 09:35:00,9.1,-4.6,30.06,NW,310,3.0,6.0,53,0.00,,OVC021,0.00,309.00,VWS V14.01,2013-01-03 14:35:00,
2013-01-03 09:39:00,9.6,-4.5,30.07,WSW,242,8.0,8.0,52,0.00,,OVC021,0.00,320.00,VWS V14.01,2013-01-03 14:39:00,
2013-01-03 09:40:00,9.5,-4.2,30.07,WNW,298,4.0,8.0,53,0.00,,OVC021,0.00,318.00,VWS V14.01,2013-01-03 14:40:00,
2013-01-03 09:44:00,10.0,-3.7,30.07,NW,306,2.0,6.0,53,0.00,,OVC021,0.00,330.00,VWS V14.01,2013-01-03 14:44:00,
2013-01-03 09:45:00,9.9,-3.8,30.07,West,273,6.0,8.0,53,0.00,,OVC021,0.00,327.00,VWS V14.01,2013-01-03 14:45:00,
2013-01-03 09:50:00,10.4,-3.7,30.07,West,269,6.0,6.0,52,0.00,,OVC021,0.00,339.00,VWS V14.01,2013-01-03 14:50:00,
2013-01-03 09:55:00,10.5,-4.0,30.06,West,272,5.0,10.0,51,0.00,,OVC021,0.00,348.00,VWS V14.01,2013-01-03 14:55:00,
2013-01-03 10:00:00,10.9,-3.7,30.06,WNW,296,6.0,9.0,51,0.00,,OVC021,0.00,355.00,VWS V14.01,2013-01-03 15:00:00,
2013-01-03 10:05:00,11.2,-3.8,30.06,WNW,296,3.0,6.0,50,0.00,,OVC021,0.00,362.00,VWS V14.01,2013-01-03 15:05:00,
2013-01-03 10:10:00,11.6,-3.8,30.06,NW,304,4.0,7.0,49,0.00,,OVC021,0.00,367.00,VWS V14.01,2013-01-03 15:10:00,
2013-01-03 10:15:00,12.1,-3.4,30.05,WNW,300,5.0,6.0,49,0.00,,OVC021,0.00,373.00,VWS V14.01,2013-01-03 15:15:00,
2013-01-03 10:20:00,12.7,-2.8,30.05,NW,308,7.0,10.0,49,0.00,,OVC021,0.00,380.00,VWS V14.01,2013-01-03 15:20:00,
2013-01-03 10:25:00,13.0,-3.0,30.05,NNW,327,5.0,6.0,48,0.00,,OVC021,0.00,385.00,VWS V14.01,2013-01-03 15:25:00,
2013-01-03 10:30:00,13.2,-3.2,30.05,NW,320,7.0,9.0,47,0.00,,OVC021,0.00,390.00,VWS V14.01,2013-01-03 15:30:00,
2013-01-03 10:35:00,13.3,-3.2,30.04,NNW,329,4.0,9.0,47,0.00,,OVC021,0.00,394.00,VWS V14.01,2013-01-03 15:35:00,
2013-01-03 10:36:00,13.5,-2.5,30.04,WNW,296,7.0,7.0,48,0.00,,OVC021,0.00,396.00,VWS V14.01,2013-01-03 15:36:00,
2013-01-03 10:40:00,13.8,-2.7,30.05,NW,308,5.0,10.0,47,0.00,,OVC021,0.00,399.00,VWS V14.01,2013-01-03 15:40:00,
2013-01-03 10:41:00,13.8,-2.7,30.04,WNW,294,3.0,9.0,47,0.00,,OVC021,0.00,401.00,VWS V14.01,2013-01-03 15:41:00,
2013-01-03 10:45:00,13.9,-2.6,30.04,NNE,13,4.0,9.0,47,0.00,,OVC021,0.00,401.00,VWS V14.01,2013-01-03 15:45:00,
2013-01-03 10:46:00,14.1,-2.9,30.04,NNW,333,3.0,6.0,46,0.00,,OVC021,0.00,404.00,VWS V14.01,2013-01-03 15:46:00,
2013-01-03 10:50:00,14.2,-2.3,30.03,North,351,1.0,8.0,47,0.00,,OVC021,0.00,406.00,VWS V14.01,2013-01-03 15:50:00,
2013-01-03 10:51:00,14.4,-2.6,30.04,WNW,298,10.0,12.0,46,0.00,,OVC021,0.00,408.00,VWS V14.01,2013-01-03 15:51:00,
2013-01-03 10:55:00,14.4,-2.6,30.04,West,280,8.0,12.0,46,0.00,,OVC021,0.00,411.00,VWS V14.01,2013-01-03 15:55:00,
2013-01-03 10:56:00,14.3,-2.7,30.04,WNW,301,4.0,8.0,46,0.00,,OVC021,0.00,413.00,VWS V14.01,2013-01-03 15:56:00,
2013-01-03 11:00:00,14.3,-2.7,30.03,NW,309,12.0,13.0,46,0.00,,OVC021,0.00,415.00,VWS V14.01,2013-01-03 16:00:00,
2013-01-03 11:01:00,14.4,-3.0,30.04,NW,319,7.0,12.0,45,0.00,,OVC021,0.00,415.00,VWS V14.01,2013-01-03 16:01:00,
2013-01-03 11:05:00,14.5,-2.5,30.03,WNW,299,8.0,12.0,46,0.00,,OVC021,0.00,417.00,VWS V14.01,2013-01-03 16:05:00,
2013-01-03 11:06:00,14.6,-3.3,30.03,North,349,7.0,12.0,44,0.00,,OVC021,0.00,418.00,VWS V14.01,2013-01-03 16:06:00,
2013-01-03 11:10:00,14.7,-2.8,30.03,NW,312,6.0,12.0,45,0.00,,OVC021,0.00,418.00,VWS V14.01,2013-01-03 16:10:00,
2013-01-03 11:11:00,15.0,-2.5,30.03,NNW,342,4.0,10.0,45,0.00,,OVC021,0.00,420.00,VWS V14.01,2013-01-03 16:11:00,
2013-01-03 11:15:00,15.1,-2.9,30.03,NW,324,4.0,10.0,44,0.00,,OVC021,0.00,420.00,VWS V14.01,2013-01-03 16:15:00,
2013-01-03 11:16:00,15.2,-2.8,30.03,WNW,302,7.0,11.0,44,0.00,,OVC021,0.00,422.00,VWS V14.01,2013-01-03 16:16:00,
2013-01-03 11:20:00,15.3,-2.7,30.03,NW,313,5.0,11.0,44,0.00,,OVC021,0.00,422.00,VWS V14.01,2013-01-03 16:20:00,
2013-01-03 11:22:00,15.6,-2.0,30.03,North,355,5.0,10.0,45,0.00,,OVC021,0.00,424.00,VWS V14.01,2013-01-03 16:22:00,
2013-01-03 11:25:00,15.6,-2.9,30.03,WNW,286,9.0,10.0,43,0.00,,OVC021,0.00,424.00,VWS V14.01,2013-01-03 16:25:00,
2013-01-03 11:27:00,15.6,-2.9,30.03,NW,310,7.0,12.0,43,0.00,,OVC021,0.00,424.00,VWS V14.01,2013-01-03 16:27:00,
2013-01-03 11:30:00,15.7,-2.3,30.03,WNW,293,5.0,12.0,44,0.00,,OVC021,0.00,424.00,VWS V14.01,2013-01-03 16:30:00,
2013-01-03 11:32:00,15.8,-2.7,30.03,NW,313,10.0,10.0,43,0.00,,OVC021,0.00,425.00,VWS V14.01,2013-01-03 16:32:00,
2013-01-03 11:35:00,15.8,-2.7,30.03,NW,306,7.0,11.0,43,0.00,,OVC021,0.00,425.00,VWS V14.01,2013-01-03 16:35:00,
2013-01-03 11:37:00,16.0,-3.0,30.03,WNW,294,4.0,12.0,42,0.00,,OVC021,0.00,425.00,VWS V14.01,2013-01-03 16:37:00,
2013-01-03 11:40:00,16.1,-2.9,30.03,NNW,327,11.0,13.0,42,0.00,,OVC021,0.00,425.00,VWS V14.01,2013-01-03 16:40:00,
2013-01-03 11:42:00,16.2,-2.8,30.02,NW,313,6.0,11.0,42,0.00,,OVC021,0.00,424.00,VWS V14.01,2013-01-03 16:42:00,
2013-01-03 11:45:00,16.3,-2.8,30.03,NNW,331,7.0,11.0,42,0.00,,OVC021,0.00,424.00,VWS V14.01,2013-01-03 16:45:00,
2013-01-03 11:47:00,16.5,-3.1,30.03,WNW,303,4.0,11.0,41,0.00,,OVC021,0.00,422.00,VWS V14.01,2013-01-03 16:47:00,
2013-01-03 11:50:00,16.5,-3.6,30.02,WNW,300,4.0,11.0,40,0.00,,OVC021,0.00,424.00,VWS V14.01,2013-01-03 16:50:00,
2013-01-03 11:52:00,16.8,-2.8,30.02,NW,323,5.0,9.0,41,0.00,,OVC021,0.00,422.00,VWS V14.01,2013-01-03 16:52:00,
2013-01-03 11:55:00,16.9,-2.2,30.02,North,350,2.0,9.0,42,0.00,,OVC021,0.00,422.00,VWS V14.01,2013-01-03 16:55:00,
2013-01-03 11:57:00,17.4,-1.8,30.02,WNW,301,10.0,11.0,42,0.00,,OVC021,0.00,422.00,VWS V14.01,2013-01-03 16:57:00,
2013-01-03 12:00:00,17.4,-2.8,30.02,NNW,338,5.0,11.0,40,0.00,,OVC021,0.00,422.00,VWS V14.01,2013-01-03 17:00:00,
2013-01-03 12:02:00,17.5,-2.7,30.01,NNW,327,7.0,11.0,40,0.00,,OVC021,0.00,420.00,VWS V14.01,2013-01-03 17:02:00,
2013-01-03 12:05:00,17.5,-3.2,30.01,NW,319,7.0,11.0,39,0.00,,OVC021,0.00,420.00,VWS V14.01,2013-01-03 17:05:00,
2013-01-03 12:07:00,17.7,-2.5,30.01,NNW,328,4.0,9.0,40,0.00,,OVC021,0.00,418.00,VWS V14.01,2013-01-03 17:07:00,
2013-01-03 12:10:00,17.8,-2.4,30.01,West,279,4.0,9.0,40,0.00,,OVC021,0.00,418.00,VWS V14.01,2013-01-03 17:10:00,
2013-01-03 12:12:00,18.0,-2.2,30.01,NW,316,8.0,11.0,40,0.00,,OVC021,0.00,415.00,VWS V14.01,2013-01-03 17:12:00,
2013-01-03 12:15:00,18.0,-2.2,30.01,NNW,331,5.0,11.0,40,0.00,,OVC021,0.00,415.00,VWS V14.01,2013-01-03 17:15:00,
2013-01-03 12:17:00,18.2,-3.1,30.00,NW,323,9.0,10.0,38,0.00,,OVC021,0.00,411.00,VWS V14.01,2013-01-03 17:17:00,
2013-01-03 12:20:00,18.2,-2.6,30.00,NW,312,6.0,10.0,39,0.00,,OVC021,0.00,411.00,VWS V14.01,2013-01-03 17:20:00,
2013-01-03 12:23:00,18.4,-1.9,30.00,NNW,340,5.0,9.0,40,0.00,,OVC021,0.00,408.00,VWS V14.01,2013-01-03 17:23:00,
2013-01-03 12:25:00,18.5,-1.8,30.00,WNW,303,3.0,9.0,40,0.00,,OVC021,0.00,408.00,VWS V14.01,2013-01-03 17:25:00,
2013-01-03 12:28:00,19.0,-1.3,30.00,NNW,348,5.0,7.0,40,0.00,,OVC021,0.00,406.00,VWS V14.01,2013-01-03 17:28:00,
2013-01-03 12:30:00,19.1,-1.2,30.00,NW,312,3.0,7.0,40,0.00,,OVC021,0.00,406.00,VWS V14.01,2013-01-03 17:30:00,
2013-01-03 12:33:00,19.4,-1.5,29.99,West,277,4.0,8.0,39,0.00,,OVC021,0.00,394.00,VWS V14.01,2013-01-03 17:33:00,
2013-01-03 12:35:00,19.5,-1.4,29.99,WNW,285,5.0,8.0,39,0.00,,OVC021,0.00,387.00,VWS V14.01,2013-01-03 17:35:00,
2013-01-03 12:38:00,19.7,-0.7,29.99,WSW,248,2.0,8.0,40,0.00,,OVC021,0.00,322.00,VWS V14.01,2013-01-03 17:38:00,
2013-01-03 12:40:00,19.7,-0.7,29.99,WNW,291,5.0,8.0,40,0.00,,OVC021,0.00,301.00,VWS V14.01,2013-01-03 17:40:00,
2013-01-03 12:43:00,19.9,-1.6,29.99,West,266,5.0,9.0,38,0.00,,OVC021,0.00,186.00,VWS V14.01,2013-01-03 17:43:00,
2013-01-03 12:45:00,20.0,-1.5,29.99,West,277,4.0,9.0,38,0.00,,OVC021,0.00,163.00,VWS V14.01,2013-01-03 17:45:00,
2013-01-03 12:48:00,20.1,-1.4,29.99,WNW,298,4.0,7.0,38,0.00,,OVC021,0.00,74.00,VWS V14.01,2013-01-03 17:48:00,
2013-01-03 12:50:00,20.2,-1.3,29.99,WNW,295,1.0,7.0,38,0.00,,OVC021,0.00,65.00,VWS V14.01,2013-01-03 17:50:00,
2013-01-03 12:53:00,20.4,-1.1,29.98,West,269,8.0,8.0,38,0.00,,OVC021,0.00,47.00,VWS V14.01,2013-01-03 17:53:00,
2013-01-03 12:55:00,20.4,-1.1,29.98,West,264,6.0,8.0,38,0.00,,OVC021,0.00,47.00,VWS V14.01,2013-01-03 17:55:00,
2013-01-03 12:58:00,20.3,-1.8,29.98,WNW,297,4.0,11.0,37,0.00,,OVC021,0.00,53.00,VWS V14.01,2013-01-03 17:58:00,
2013-01-03 13:00:00,20.3,-1.8,29.98,West,259,6.0,11.0,37,0.00,,OVC021,0.00,53.00,VWS V14.01,2013-01-03 18:00:00,
2013-01-03 13:03:00,20.5,-1.6,29.98,WSW,250,5.0,8.0,37,0.00,,OVC021,0.00,58.00,VWS V14.01,2013-01-03 18:03:00,
2013-01-03 13:05:00,20.5,-1.6,29.98,SW,235,5.0,8.0,37,0.00,,OVC021,0.00,58.00,VWS V14.01,2013-01-03 18:05:00,
2013-01-03 13:08:00,20.9,-1.3,29.97,West,279,7.0,10.0,37,0.00,,OVC021,0.00,74.00,VWS V14.01,2013-01-03 18:08:00,
2013-01-03 13:10:00,20.9,-1.3,29.97,West,279,7.0,10.0,37,0.00,,OVC021,0.00,74.00,VWS V14.01,2013-01-03 18:10:00,
2013-01-03 13:13:00,20.8,-1.9,29.98,West,281,7.0,12.0,36,0.00,,OVC021,0.00,63.00,VWS V14.01,2013-01-03 18:13:00,
2013-01-03 13:15:00,20.8,-1.9,29.98,West,281,7.0,12.0,36,0.00,,OVC021,0.00,63.00,VWS V14.01,2013-01-03 18:15:00,
2013-01-03 13:18:00,21.1,-1.1,29.97,West,262,9.0,13.0,37,0.00,,OVC021,0.00,46.00,VWS V14.01,2013-01-03 18:18:00,
2013-01-03 13:20:00,21.1,-1.1,29.97,West,262,9.0,13.0,37,0.00,,OVC021,0.00,46.00,VWS V14.01,2013-01-03 18:20:00,
2013-01-03 13:23:00,21.2,-2.2,29.97,WNW,296,3.0,17.0,35,0.00,,OVC021,0.00,39.00,VWS V14.01,2013-01-03 18:23:00,
2013-01-03 13:25:00,21.2,-2.2,29.97,WNW,296,3.0,17.0,35,0.00,,OVC021,0.00,39.00,VWS V14.01,2013-01-03 18:25:00,
2013-01-03 13:28:00,21.6,-1.2,29.97,WNW,286,4.0,8.0,36,0.00,,OVC021,0.00,35.00,VWS V14.01,2013-01-03 18:28:00,
2013-01-03 13:30:00,21.6,-1.2,29.97,WNW,286,4.0,8.0,36,0.00,,OVC021,0.00,35.00,VWS V14.01,2013-01-03 18:30:00,
2013-01-03 13:33:00,21.9,-0.9,29.97,NNW,343,7.0,7.0,36,0.00,,OVC021,0.00,35.00,VWS V14.01,2013-01-03 18:33:00,
2013-01-03 13:35:00,21.9,-0.9,29.97,NNW,343,7.0,7.0,36,0.00,,OVC021,0.00,35.00,VWS V14.01,2013-01-03 18:35:00,
2013-01-03 13:38:00,22.1,-0.8,29.97,West,269,7.0,12.0,36,0.00,,OVC021,0.00,33.00,VWS V14.01,2013-01-03 18:38:00,
2013-01-03 13:40:00,22.1,-0.8,29.97,West,269,7.0,12.0,36,0.00,,OVC021,0.00,33.00,VWS V14.01,2013-01-03 18:40:00,
2013-01-03 13:43:00,22.1,-2.0,29.96,West,267,5.0,11.0,34,0.00,,OVC021,0.00,33.00,VWS V14.01,2013-01-03 18:43:00,
2013-01-03 13:45:00,22.1,-2.0,29.96,West,267,5.0,11.0,34,0.00,,OVC021,0.00,33.00,VWS V14.01,2013-01-03 18:45:00,
2013-01-03 13:48:00,22.2,-1.9,29.96,WNW,298,3.0,5.0,34,0.00,,OVC021,0.00,33.00,VWS V14.01,2013-01-03 18:48:00,
2013-01-03 13:50:00,22.2,-1.9,29.96,WNW,303,5.0,10.0,34,0.00,,OVC021,0.00,33.00,VWS V14.01,2013-01-03 18:50:00,
2013-01-03 13:54:00,22.3,-1.2,29.96,West,281,7.0,8.0,35,0.00,,OVC021,0.00,33.00,VWS V14.01,2013-01-03 18:54:00,
2013-01-03 13:55:00,22.3,-1.2,29.96,West,269,6.0,11.0,35,0.00,,OVC021,0.00,33.00,VWS V14.01,2013-01-03 18:55:00,
2013-01-03 13:59:00,22.5,-2.2,29.96,WNW,297,8.0,8.0,33,0.00,,OVC021,0.00,32.00,VWS V14.01,2013-01-03 18:59:00,
2013-01-03 14:00:00,22.5,-2.2,29.96,NW,326,3.0,9.0,33,0.00,,OVC021,0.00,32.00,VWS V14.01,2013-01-03 19:00:00,
2013-01-03 14:04:00,22.6,-1.5,29.96,WSW,253,7.0,9.0,34,0.00,,OVC021,0.00,33.00,VWS V14.01,2013-01-03 19:04:00,
2013-01-03 14:05:00,22.5,-1.6,29.96,West,273,7.0,10.0,34,0.00,,OVC021,0.00,33.00,VWS V14.01,2013-01-03 19:05:00,
2013-01-03 14:09:00,22.9,-1.3,29.96,NW,311,4.0,5.0,34,0.00,,OVC021,0.00,35.00,VWS V14.01,2013-01-03 19:09:00,
2013-01-03 14:10:00,22.8,-1.4,29.96,WNW,289,2.0,9.0,34,0.00,,OVC021,0.00,35.00,VWS V14.01,2013-01-03 19:10:00,
2013-01-03 14:14:00,23.1,-2.4,29.96,WSW,257,8.0,11.0,32,0.00,,OVC021,0.00,40.00,VWS V14.01,2013-01-03 19:14:00,
2013-01-03 14:15:00,23.1,-2.4,29.96,NW,313,5.0,12.0,32,0.00,,OVC021,0.00,40.00,VWS V14.01,2013-01-03 19:15:00,
2013-01-03 14:20:00,23.4,-1.5,29.96,WNW,294,3.0,11.0,33,0.00,,OVC021,0.00,44.00,VWS V14.01,2013-01-03 19:20:00,
2013-01-03 14:25:00,24.0,-0.3,29.96,West,279,6.0,9.0,34,0.00,,OVC021,0.00,46.00,VWS V14.01,2013-01-03 19:25:00,
2013-01-03 14:30:00,24.3,-3.4,29.96,NNW,348,7.0,8.0,29,0.00,,OVC021,0.00,35.00,VWS V14.01,2013-01-03 19:30:00,
2013-01-03 14:35:00,24.3,-5.6,29.96,NW,312,6.0,11.0,26,0.00,,OVC021,0.00,32.00,VWS V14.01,2013-01-03 19:35:00,
2013-01-03 14:40:00,23.9,-6.0,29.96,NNW,342,12.0,15.0,26,0.00,,OVC021,0.00,37.00,VWS V14.01,2013-01-03 19:40:00,
2013-01-03 14:45:00,23.5,-5.6,29.96,North,11,4.0,12.0,27,0.00,,OVC021,0.00,67.00,VWS V14.01,2013-01-03 19:45:00,
2013-01-03 14:50:00,23.5,-5.6,29.97,NNW,339,3.0,10.0,27,0.00,,OVC021,0.00,102.00,VWS V14.01,2013-01-03 19:50:00,
2013-01-03 14:53:00,23.5,-4.8,29.96,NNW,335,6.0,11.0,28,0.00,,OVC021,0.00,127.00,VWS V14.01,2013-01-03 19:53:00,
2013-01-03 14:55:00,23.5,-5.6,29.96,NNW,336,6.0,11.0,27,0.00,,OVC021,0.00,132.00,VWS V14.01,2013-01-03 19:55:00,
2013-01-03 14:58:00,23.4,-4.9,29.96,NW,314,6.0,9.0,28,0.00,,OVC021,0.00,144.00,VWS V14.01,2013-01-03 19:58:00,
2013-01-03 15:00:00,23.4,-4.9,29.96,NW,316,9.0,9.0,28,0.00,,OVC021,0.00,139.00,VWS V14.01,2013-01-03 20:00:00,
2013-01-03 15:03:00,23.3,-5.0,29.96,North,349,5.0,10.0,28,0.00,,OVC021,0.00,125.00,VWS V14.01,2013-01-03 20:03:00,
2013-01-03 15:05:00,23.3,-5.0,29.96,North,355,5.0,10.0,28,0.00,,OVC021,0.00,125.00,VWS V14.01,2013-01-03 20:05:00,
2013-01-03 15:08:00,23.2,-5.1,29.96,NW,323,6.0,10.0,28,0.00,,OVC021,0.00,116.00,VWS V14.01,2013-01-03 20:08:00,
2013-01-03 15:10:00,23.3,-5.0,29.96,NW,313,7.0,10.0,28,0.00,,OVC021,0.00,118.00,VWS V14.01,2013-01-03 20:10:00,
2013-01-03 15:13:00,23.3,-4.2,29.96,NW,307,4.0,12.0,29,0.00,,OVC021,0.00,98.00,VWS V14.01,2013-01-03 20:13:00,
2013-01-03 15:15:00,23.3,-5.0,29.96,WNW,296,7.0,12.0,28,0.00,,OVC021,0.00,98.00,VWS V14.01,2013-01-03 20:15:00,
2013-01-03 15:18:00,23.2,-4.3,29.96,NNW,335,7.0,9.0,29,0.00,,OVC021,0.00,81.00,VWS V14.01,2013-01-03 20:18:00,
2013-01-03 15:20:00,23.2,-5.1,29.96,NW,313,6.0,9.0,28,0.00,,OVC021,0.00,81.00,VWS V14.01,2013-01-03 20:20:00,
2013-01-03 15:23:00,23.0,-3.8,29.96,NW,318,8.0,9.0,30,0.00,,OVC021,0.00,51.00,VWS V14.01,2013-01-03 20:23:00,
2013-01-03 15:25:00,23.0,-5.2,29.96,NW,318,7.0,9.0,28,0.00,,OVC021,0.00,51.00,VWS V14.01,2013-01-03 20:25:00,
2013-01-03 15:28:00,22.9,-5.3,29.96,NW,321,4.0,8.0,28,0.00,,OVC021,0.00,40.00,VWS V14.01,2013-01-03 20:28:00,
2013-01-03 15:30:00,22.9,-5.3,29.96,NW,321,3.0,8.0,28,0.00,,OVC021,0.00,40.00,VWS V14.01,2013-01-03 20:30:00,
2013-01-03 15:33:00,22.8,-5.4,29.96,NW,316,3.0,7.0,28,0.00,,OVC021,0.00,42.00,VWS V14.01,2013-01-03 20:33:00,
2013-01-03 15:35:00,22.8,-5.4,29.96,NW,316,3.0,7.0,28,0.00,,OVC021,0.00,42.00,VWS V14.01,2013-01-03 20:35:00,
2013-01-03 15:38:00,22.8,-5.4,29.96,NW,315,5.0,7.0,28,0.00,,OVC021,0.00,46.00,VWS V14.01,2013-01-03 20:38:00,
2013-01-03 15:40:00,22.8,-5.4,29.96,NW,315,5.0,7.0,28,0.00,,OVC021,0.00,46.00,VWS V14.01,2013-01-03 20:40:00,
2013-01-03 15:43:00,22.7,-4.8,29.96,NW,315,3.0,7.0,29,0.00,,OVC021,0.00,37.00,VWS V14.01,2013-01-03 20:43:00,
2013-01-03 15:45:00,22.7,-4.8,29.96,NW,315,3.0,7.0,29,0.00,,OVC021,0.00,37.00,VWS V14.01,2013-01-03 20:45:00,
2013-01-03 15:48:00,22.8,-4.7,29.96,NW,304,1.0,1.0,29,0.00,,OVC021,0.00,30.00,VWS V14.01,2013-01-03 20:48:00,
2013-01-03 15:50:00,22.7,-4.8,29.96,NW,304,1.0,5.0,29,0.00,,OVC021,0.00,32.00,VWS V14.01,2013-01-03 20:50:00,
2013-01-03 15:53:00,22.9,-4.6,29.96,NW,308,1.0,1.0,29,0.00,,OVC021,0.00,23.00,VWS V14.01,2013-01-03 20:53:00,
2013-01-03 15:55:00,22.9,-4.6,29.96,NW,308,1.0,4.0,29,0.00,,OVC021,0.00,23.00,VWS V14.01,2013-01-03 20:55:00,
2013-01-03 15:58:00,22.8,-5.4,29.96,WNW,296,5.0,6.0,28,0.00,,OVC021,0.00,18.00,VWS V14.01,2013-01-03 20:58:00,
2013-01-03 16:00:00,22.8,-5.4,29.96,NW,314,5.0,7.0,28,0.00,,OVC021,0.00,18.00,VWS V14.01,2013-01-03 21:00:00,
2013-01-03 16:04:00,22.4,-5.8,29.96,WNW,303,2.0,3.0,28,0.00,,OVC021,0.00,18.00,VWS V14.01,2013-01-03 21:04:00,
2013-01-03 16:05:00,22.4,-5.8,29.96,WNW,302,3.0,7.0,28,0.00,,OVC021,0.00,18.00,VWS V14.01,2013-01-03 21:05:00,
2013-01-03 16:09:00,22.2,-5.2,29.96,WNW,282,2.0,3.0,29,0.00,,OVC021,0.00,14.00,VWS V14.01,2013-01-03 21:09:00,
2013-01-03 16:10:00,22.2,-4.5,29.96,WNW,282,3.0,4.0,30,0.00,,OVC021,0.00,14.00,VWS V14.01,2013-01-03 21:10:00,
2013-01-03 16:14:00,22.1,-4.6,29.96,NW,310,2.0,2.0,30,0.00,,OVC021,0.00,11.00,VWS V14.01,2013-01-03 21:14:00,
2013-01-03 16:15:00,22.1,-4.6,29.96,NW,310,2.0,4.0,30,0.00,,OVC021,0.00,11.00,VWS V14.01,2013-01-03 21:15:00,
2013-01-03 16:19:00,21.9,-4.1,29.96,West,275,1.0,2.0,31,0.00,,OVC021,0.00,7.00,VWS V14.01,2013-01-03 21:19:00,
2013-01-03 16:20:00,22.0,-4.7,29.97,West,275,2.0,4.0,30,0.00,,OVC021,0.00,7.00,VWS V14.01,2013-01-03 21:20:00,
2013-01-03 16:24:00,21.8,-4.2,29.96,WNW,302,2.0,6.0,31,0.00,,OVC021,0.00,5.00,VWS V14.01,2013-01-03 21:24:00,
2013-01-03 16:25:00,21.8,-4.2,29.96,WNW,288,3.0,8.0,31,0.00,,OVC021,0.00,5.00,VWS V14.01,2013-01-03 21:25:00,
2013-01-03 16:29:00,21.5,-3.8,29.96,WNW,296,2.0,5.0,32,0.00,,OVC021,0.00,0.00,VWS V14.01,2013-01-03 21:29:00,
2013-01-03 16:30:00,21.6,-3.7,29.96,WNW,289,5.0,6.0,32,0.00,,OVC021,0.00,0.00,VWS V14.01,2013-01-03 21:30:00,
2013-01-03 16:34:00,21.3,-3.3,29.96,WNW,296,4.0,5.0,33,0.00,,OVC021,0.00,0.00,VWS V14.01,2013-01-03 21:34:00,
2013-01-03 16:35:00,21.3,-4.0,29.96,WNW,297,2.0,5.0,32,0.00,,OVC021,0.00,0.00,VWS V14.01,2013-01-03 21:35:00,
2013-01-03 16:39:00,21.2,-2.8,29.95,WNW,297,1.0,3.0,34,0.00,,OVC021,0.00,0.00,VWS V14.01,2013-01-03 21:39:00,
2013-01-03 16:40:00,21.2,-2.8,29.96,WNW,296,3.0,5.0,34,0.00,,OVC021,0.00,0.00,VWS V14.01,2013-01-03 21:40:00,
2013-01-03 16:44:00,21.1,-2.9,29.96,WNW,296,2.0,2.0,34,0.00,,OVC021,0.00,0.00,VWS V14.01,2013-01-03 21:44:00,
2013-01-03 16:45:00,21.1,-2.9,29.96,WNW,297,0.0,3.0,34,0.00,,OVC021,0.00,0.00,VWS V14.01,2013-01-03 21:45:00,
2013-01-03 16:49:00,21.0,-2.3,29.96,WNW,296,1.0,2.0,35,0.00,,OVC021,0.00,0.00,VWS V14.01,2013-01-03 21:49:00,
2013-01-03 16:50:00,21.0,-2.3,29.96,WNW,296,0.0,2.0,35,0.00,,OVC021,0.00,0.00,VWS V14.01,2013-01-03 21:50:00,
2013-01-03 16:54:00,20.7,-2.0,29.96,WNW,297,0.0,1.0,36,0.00,,OVC021,0.00,0.00,VWS V14.01,2013-01-03 21:54:00,
2013-01-03 16:55:00,20.7,-2.0,29.96,WNW,297,0.0,2.0,36,0.00,,OVC021,0.00,0.00,VWS V14.01,2013-01-03 21:55:00,
2013-01-03 16:59:00,20.5,-1.6,29.96,WNW,296,0.0,0.0,37,0.00,,OVC021,0.00,0.00,VWS V14.01,2013-01-03 21:59:00,
2013-01-03 17:00:00,20.5,-1.6,29.96,WNW,296,0.0,1.0,37,0.00,,OVC021,0.00,0.00,VWS V14.01,2013-01-03 22:00:00,
2013-01-03 17:04:00,20.3,-1.2,29.96,WNW,297,0.0,0.0,38,0.00,,OVC021,0.00,0.00,VWS V14.01,2013-01-03 22:04:00,
2013-01-03 17:05:00,20.3,-1.8,29.96,WNW,297,0.0,1.0,37,0.00,,OVC021,0.00,0.00,VWS V14.01,2013-01-03 22:05:00,
2013-01-03 17:09:00,20.1,-0.9,29.96,WNW,296,0.0,0.0,39,0.00,,OVC021,0.00,0.00,VWS V14.01,2013-01-03 22:09:00,
2013-01-03 17:10:00,20.2,-0.8,29.96,WNW,296,0.0,0.0,39,0.00,,OVC021,0.00,0.00,VWS V14.01,2013-01-03 22:10:00,
2013-01-03 17:15:00,19.9,-1.0,29.97,WNW,296,0.0,0.0,39,0.00,,OVC021,0.00,0.00,VWS V14.01,2013-01-03 22:15:00,
2013-01-03 17:20:00,19.6,-0.8,29.97,WNW,297,0.0,0.0,40,0.00,,OVC021,0.00,0.00,VWS V14.01,2013-01-03 22:20:00,
2013-01-03 17:25:00,19.3,-0.5,29.97,WNW,296,0.0,1.0,41,0.00,,OVC021,0.00,0.00,VWS V14.01,2013-01-03 22:25:00,
2013-01-03 17:30:00,19.1,-0.7,29.97,WNW,296,0.0,1.0,41,0.00,,OVC021,0.00,0.00,VWS V14.01,2013-01-03 22:30:00,
2013-01-03 17:35:00,19.0,0.2,29.97,WNW,296,0.0,0.0,43,0.00,,OVC021,0.00,0.00,VWS V14.01,2013-01-03 22:35:00,
2013-01-03 17:40:00,18.8,1.0,29.97,WNW,297,0.0,1.0,45,0.00,,OVC021,0.00,0.00,VWS V14.01,2013-01-03 22:40:00,
2013-01-03 17:45:00,18.8,1.0,29.97,WNW,296,0.0,1.0,45,0.00,,OVC021,0.00,0.00,VWS V14.01,2013-01-03 22:45:00,
2013-01-03 17:50:00,18.6,1.3,29.97,WNW,297,0.0,0.0,46,0.00,,OVC021,0.00,0.00,VWS V14.01,2013-01-03 22:50:00,
2013-01-03 17:55:00,18.3,1.0,29.97,WNW,297,0.0,0.0,46,0.00,,OVC021,0.00,0.00,VWS V14.01,2013-01-03 22:55:00,
2013-01-03 18:00:00,17.9,2.0,29.97,WNW,296,0.0,1.0,49,0.00,,OVC021,0.00,0.00,VWS V14.01,2013-01-03 23:00:00,
2013-01-03 18:05:00,17.6,1.7,29.97,WNW,297,0.0,0.0,49,0.00,,OVC021,0.00,0.00,VWS V14.01,2013-01-03 23:05:00,
2013-01-03 18:10:00,17.2,1.8,29.97,WNW,296,0.0,0.0,50,0.00,,OVC021,0.00,0.00,VWS V14.01,2013-01-03 23:10:00,
2013-01-03 18:15:00,16.7,1.3,29.97,WNW,296,0.0,0.0,50,0.00,,OVC021,0.00,0.00,VWS V14.01,2013-01-03 23:15:00,
2013-01-03 18:20:00,16.5,1.5,29.97,WNW,297,0.0,0.0,51,0.00,,OVC021,0.00,0.00,VWS V14.01,2013-01-03 23:20:00,
2013-01-03 18:25:00,16.1,1.2,29.98,WNW,296,0.0,0.0,51,0.00,,OVC021,0.00,0.00,VWS V14.01,2013-01-03 23:25:00,
2013-01-03 18:30:00,16.0,1.5,29.98,WNW,296,0.0,0.0,52,0.00,,OVC021,0.00,0.00,VWS V14.01,2013-01-03 23:30:00,
2013-01-03 18:31:00,15.8,1.3,29.98,WNW,297,0.0,0.0,52,0.00,,OVC021,0.00,0.00,VWS V14.01,2013-01-03 23:31:00,
2013-01-03 18:35:00,15.7,1.6,29.98,WNW,296,0.0,0.0,53,0.00,,OVC021,0.00,0.00,VWS V14.01,2013-01-03 23:35:00,
2013-01-03 18:36:00,15.6,1.5,29.98,WNW,296,0.0,0.0,53,0.00,,OVC021,0.00,0.00,VWS V14.01,2013-01-03 23:36:00,
2013-01-03 18:40:00,15.5,1.4,29.98,WNW,296,0.0,0.0,53,0.00,,OVC021,0.00,0.00,VWS V14.01,2013-01-03 23:40:00,
2013-01-03 18:41:00,15.4,1.3,29.98,WNW,297,0.0,0.0,53,0.00,,OVC021,0.00,0.00,VWS V14.01,2013-01-03 23:41:00,
2013-01-03 18:45:00,15.4,1.3,29.98,WNW,296,0.0,0.0,53,0.00,,OVC021,0.00,0.00,VWS V14.01,2013-01-03 23:45:00,
2013-01-03 18:46:00,15.3,1.6,29.97,WNW,296,0.0,0.0,54,0.00,,OVC021,0.00,0.00,VWS V14.01,2013-01-03 23:46:00,
2013-01-03 18:50:00,15.2,1.1,29.97,WNW,297,0.0,0.0,53,0.00,,OVC021,0.00,0.00,VWS V14.01,2013-01-03 23:50:00,
2013-01-03 18:51:00,15.1,1.5,29.97,WNW,297,0.0,0.0,54,0.00,,OVC021,0.00,0.00,VWS V14.01,2013-01-03 23:51:00,
2013-01-03 18:55:00,15.0,1.4,29.97,WNW,297,0.0,1.0,54,0.00,,OVC021,0.00,0.00,VWS V14.01,2013-01-03 23:55:00,
2013-01-03 18:56:00,14.9,1.7,29.98,WNW,297,0.0,0.0,55,0.00,,OVC021,0.00,0.00,VWS V14.01,2013-01-03 23:56:00,
2013-01-03 19:00:00,14.9,2.0,29.98,WNW,297,0.0,0.0,56,0.00,,OVC021,0.00,0.00,VWS V14.01,2013-01-04 00:00:00,
2013-01-03 19:05:00,14.8,3.1,29.98,WNW,297,0.0,0.0,59,0.00,,OVC021,0.00,0.00,VWS V14.01,2013-01-04 00:05:00,
2013-01-03 19:10:00,14.7,3.3,29.97,WNW,297,0.0,0.0,60,0.00,,OVC021,0.00,0.00,VWS V14.01,2013-01-04 00:10:00,
2013-01-03 19:15:00,14.6,3.2,29.97,WNW,296,0.0,0.0,60,0.00,,OVC021,0.00,0.00,VWS V14.01,2013-01-04 00:15:00,
2013-01-03 19:20:00,14.6,3.6,29.98,WNW,297,0.0,0.0,61,0.00,,OVC021,0.00,0.00,VWS V14.01,2013-01-04 00:20:00,
2013-01-03 19:25:00,14.7,4.1,29.98,WNW,296,0.0,0.0,62,0.00,,OVC021,0.00,0.00,VWS V14.01,2013-01-04 00:25:00,
2013-01-03 19:30:00,14.7,4.1,29.98,WNW,297,0.0,0.0,62,0.00,,OVC021,0.00,0.00,VWS V14.01,2013-01-04 00:30:00,
2013-01-03 19:35:00,14.7,4.1,29.98,WNW,297,0.0,0.0,62,0.00,,OVC021,0.00,0.00,VWS V14.01,2013-01-04 00:35:00,
2013-01-03 19:40:00,14.8,4.2,29.98,WNW,296,0.0,0.0,62,0.00,,OVC021,0.00,0.00,VWS V14.01,2013-01-04 00:40:00,
2013-01-03 19:45:00,14.8,4.2,29.98,WNW,296,0.0,0.0,62,0.00,,OVC021,0.00,0.00,VWS V14.01,2013-01-04 00:45:00,
2013-01-03 19:50:00,14.8,4.2,29.98,WNW,296,0.0,0.0,62,0.00,,OVC021,0.00,0.00,VWS V14.01,2013-01-04 00:50:00,
2013-01-03 19:55:00,14.9,4.6,29.98,WNW,297,0.0,0.0,63,0.00,,OVC021,0.00,0.00,VWS V14.01,2013-01-04 00:55:00,
2013-01-03 20:00:00,15.0,4.7,29.98,WNW,296,0.0,0.0,63,0.00,,OVC021,0.00,0.00,VWS V14.01,2013-01-04 01:00:00,
2013-01-03 20:05:00,15.3,5.3,29.97,WNW,297,0.0,0.0,64,0.00,,OVC021,0.00,0.00,VWS V14.01,2013-01-04 01:05:00,
2013-01-03 20:10:00,15.6,5.3,29.97,WNW,296,0.0,1.0,63,0.00,,OVC021,0.00,0.00,VWS V14.01,2013-01-04 01:10:00,
2013-01-03 20:15:00,15.7,5.0,29.97,WNW,296,0.0,0.0,62,0.00,,OVC021,0.00,0.00,VWS V14.01,2013-01-04 01:15:00,
2013-01-03 20:20:00,15.7,5.0,29.97,WNW,296,0.0,2.0,62,0.00,,OVC021,0.00,0.00,VWS V14.01,2013-01-04 01:20:00,
2013-01-03 20:25:00,16.0,5.6,29.97,WNW,297,0.0,3.0,63,0.00,,OVC021,0.00,0.00,VWS V14.01,2013-01-04 01:25:00,
2013-01-03 20:30:00,16.3,5.2,29.97,WNW,296,1.0,3.0,61,0.00,,OVC021,0.00,0.00,VWS V14.01,2013-01-04 01:30:00,
2013-01-03 20:35:00,16.7,5.2,29.97,WNW,296,4.0,4.0,60,0.00,,OVC021,0.00,0.00,VWS V14.01,2013-01-04 01:35:00,
2013-01-03 20:40:00,17.1,5.2,29.98,WNW,297,2.0,4.0,59,0.00,,OVC021,0.00,0.00,VWS V14.01,2013-01-04 01:40:00,
2013-01-03 20:45:00,17.4,5.2,29.98,WNW,297,1.0,4.0,58,0.00,,OVC021,0.00,0.00,VWS V14.01,2013-01-04 01:45:00,
2013-01-03 20:50:00,17.5,5.3,29.98,WNW,297,1.0,3.0,58,0.00,,OVC021,0.00,0.00,VWS V14.01,2013-01-04 01:50:00,
2013-01-03 20:55:00,17.4,5.2,29.98,WNW,296,1.0,2.0,58,0.00,,OVC021,0.00,0.00,VWS V14.01,2013-01-04 01:55:00,
2013-01-03 21:00:00,17.2,5.3,29.98,WNW,296,1.0,3.0,59,0.00,,OVC021,0.00,0.00,VWS V14.01,2013-01-04 02:00:00,
2013-01-03 21:05:00,17.1,5.2,29.98,WNW,297,0.0,1.0,59,0.00,,OVC021,0.00,0.00,VWS V14.01,2013-01-04 02:05:00,
2013-01-03 21:10:00,16.9,5.4,29.97,WNW,296,0.0,1.0,60,0.00,,OVC021,0.00,0.00,VWS V14.01,2013-01-04 02:10:00,
2013-01-03 21:15:00,16.8,5.7,29.98,WNW,296,0.0,2.0,61,0.00,,OVC021,0.00,0.00,VWS V14.01,2013-01-04 02:15:00,
2013-01-03 21:20:00,16.6,5.5,29.98,WNW,296,0.0,1.0,61,0.00,,OVC021,0.00,0.00,VWS V14.01,2013-01-04 02:20:00,
2013-01-03 21:25:00,16.5,5.8,29.98,WNW,296,0.0,2.0,62,0.00,,OVC021,0.00,0.00,VWS V14.01,2013-01-04 02:25:00,
2013-01-03 21:30:00,16.4,5.7,29.98,WNW,297,0.0,0.0,62,0.00,,OVC021,0.00,0.00,VWS V14.01,2013-01-04 02:30:00,
2013-01-03 21:35:00,16.3,5.6,29.97,WNW,296,0.0,0.0,62,0.00,,OVC021,0.00,0.00,VWS V14.01,2013-01-04 02:35:00,
2013-01-03 21:40:00,16.2,5.8,29.97,WNW,297,0.0,0.0,63,0.00,,OVC021,0.00,0.00,VWS V14.01,2013-01-04 02:40:00,
2013-01-03 21:45:00,16.3,5.9,29.97,WNW,296,0.0,0.0,63,0.00,,OVC021,0.00,0.00,VWS V14.01,2013-01-04 02:45:00,
2013-01-03 21:50:00,16.2,5.8,29.97,WNW,296,0.0,1.0,63,0.00,,OVC021,0.00,0.00,VWS V14.01,2013-01-04 02:50:00,
2013-01-03 21:55:00,16.1,6.4,29.97,WNW,297,0.0,0.0,65,0.00,,OVC021,0.00,0.00,VWS V14.01,2013-01-04 02:55:00,
2013-01-03 22:00:00,16.1,6.4,29.97,WNW,296,0.0,0.0,65,0.00,,OVC021,0.00,0.00,VWS V14.01,2013-01-04 03:00:00,
2013-01-03 22:05:00,16.0,6.3,29.97,WNW,297,0.0,0.0,65,0.00,,OVC021,0.00,0.00,VWS V14.01,2013-01-04 03:05:00,
2013-01-03 22:10:00,16.1,6.4,29.97,WNW,296,0.0,0.0,65,0.00,,OVC021,0.00,0.00,VWS V14.01,2013-01-04 03:10:00,
2013-01-03 22:15:00,16.0,6.7,29.96,WNW,296,0.0,0.0,66,0.00,,OVC021,0.00,0.00,VWS V14.01,2013-01-04 03:15:00,
2013-01-03 22:20:00,15.9,6.9,29.97,WNW,296,0.0,0.0,67,0.00,,OVC021,0.00,0.00,VWS V14.01,2013-01-04 03:20:00,
2013-01-03 22:25:00,15.9,6.6,29.97,WNW,297,0.0,0.0,66,0.00,,OVC021,0.00,0.00,VWS V14.01,2013-01-04 03:25:00,
2013-01-03 22:30:00,16.0,6.7,29.97,WNW,297,0.0,0.0,66,0.00,,OVC021,0.00,0.00,VWS V14.01,2013-01-04 03:30:00,
2013-01-03 22:35:00,16.1,7.1,29.97,WNW,296,0.0,1.0,67,0.00,,OVC021,0.00,0.00,VWS V14.01,2013-01-04 03:35:00,
2013-01-03 22:40:00,16.2,7.8,29.96,WNW,297,0.0,2.0,69,0.00,,OVC021,0.00,0.00,VWS V14.01,2013-01-04 03:40:00,
2013-01-03 22:45:00,16.3,7.6,29.96,WNW,296,0.0,2.0,68,0.00,,OVC021,0.00,0.00,VWS V14.01,2013-01-04 03:45:00,
2013-01-03 22:50:00,16.6,7.9,29.95,WNW,296,1.0,3.0,68,0.00,,OVC021,0.00,0.00,VWS V14.01,2013-01-04 03:50:00,
2013-01-03 22:55:00,16.9,7.8,29.95,WNW,296,0.0,4.0,67,0.00,,OVC021,0.00,0.00,VWS V14.01,2013-01-04 03:55:00,
2013-01-03 23:00:00,17.0,7.9,29.95,WNW,297,0.0,2.0,67,0.00,,OVC021,0.00,0.00,VWS V14.01,2013-01-04 04:00:00,
2013-01-03 23:05:00,17.1,7.7,29.95,WNW,297,0.0,2.0,66,0.00,,OVC021,0.00,0.00,VWS V14.01,2013-01-04 04:05:00,
2013-01-03 23:10:00,17.2,7.8,29.95,WNW,296,1.0,2.0,66,0.00,,OVC021,0.00,0.00,VWS V14.01,2013-01-04 04:10:00,
2013-01-03 23:15:00,17.4,7.7,29.95,WNW,297,0.0,3.0,65,0.00,,OVC021,0.00,0.00,VWS V14.01,2013-01-04 04:15:00,
2013-01-03 23:20:00,17.5,7.8,29.94,WNW,297,3.0,4.0,65,0.00,,OVC021,0.00,0.00,VWS V14.01,2013-01-04 04:20:00,
2013-01-03 23:25:00,17.6,7.8,29.94,WNW,297,0.0,3.0,65,0.00,,OVC021,0.00,0.00,VWS V14.01,2013-01-04 04:25:00,
2013-01-03 23:30:00,17.5,7.8,29.94,WNW,296,1.0,2.0,65,0.00,,OVC021,0.00,0.00,VWS V14.01,2013-01-04 04:30:00,
2013-01-03 23:35:00,17.5,8.1,29.94,WNW,296,0.0,3.0,66,0.00,,OVC021,0.00,0.00,VWS V14.01,2013-01-04 04:35:00,
2013-01-03 23:40:00,17.4,8.3,29.93,WNW,296,1.0,3.0,67,0.00,,OVC021,0.00,0.00,VWS V14.01,2013-01-04 04:40:00,
2013-01-03 23:45:00,17.2,8.1,29.93,WNW,296,2.0,3.0,67,0.00,,OVC021,0.00,0.00,VWS V14.01,2013-01-04 04:45:00,
2013-01-03 23:50:00,17.3,8.2,29.93,WNW,297,2.0,4.0,67,0.00,,OVC021,0.00,0.00,VWS V14.01,2013-01-04 04:50:00,
2013-01-03 23:55:00,17.4,8.3,29.93,WNW,285,5.0,5.0,67,0.00,,OVC021,0.00,0.00,VWS V14.01,2013-01-04 04:55:00,